Theta_e
326 330 334 339 348 347 346 345 349 348 347 348 347 347 346 349 351 360 350 347 345 345 344 344 344 345 345 345 345 346 343 337 327 328 330 333 335 337 336 335 334 334 333 333 333 332 326 324 322
328 332 335 338 344 345 344 343 346 349 345 344 342 341 341 354 351 352 351 347 346 345 342 342 343 344 346 344 345 339 334 326 329 334 333 333 336 336 334 333 333 332 331 331 333 328 343 336 339
328 331 339 340 339 340 343 345 349 348 347 347 346 345 344 350 350 350 348 346 346 344 342 344 344 346 345 346 341 339 338 339 337 334 329 331 334 333 333 334 334 335 335 336 332 335 342 344 343
325 333 334 339 336 336 340 346 349 349 348 346 346 347 350 349 350 351 347 347 346 343 340 340 342 347 346 344 335 331 331 338 337 334 331 334 330 329 334 334 331 334 336 334 335 341 342 343 340
326 333 336 333 333 333 334 343 347 348 346 349 347 349 352 352 351 351 348 346 343 340 340 338 343 346 343 339 330 323 328 329 325 321 324 321 325 328 330 329 328 328 333 334 336 341 340 339 337
331 331 332 333 333 331 332 342 347 346 346 350 348 350 356 352 351 351 348 344 341 338 338 338 345 346 341 337 326 321 323 325 324 320 319 318 325 327 328 324 324 326 332 334 338 337 337 335 334
331 330 331 333 337 339 342 342 345 346 347 350 347 351 355 352 351 351 347 344 340 338 338 338 343 346 340 336 325 324 326 326 322 319 319 323 326 326 324 323 323 325 334 338 336 335 334 333 331
328 329 332 334 337 338 344 344 345 346 347 345 344 349 352 351 350 350 347 343 339 337 338 338 341 341 342 339 328 323 325 325 323 322 321 323 322 323 327 330 323 325 335 337 335 333 332 330 326
324 329 333 334 334 339 344 344 346 343 346 346 345 345 345 348 347 347 345 342 339 337 337 337 339 340 340 339 332 324 326 327 326 325 322 327 329 331 332 325 322 325 332 336 333 332 328 327 325
326 329 329 326 328 337 341 341 347 346 345 346 349 347 347 347 346 344 342 340 338 337 337 337 340 339 340 339 334 332 332 335 337 336 333 332 332 332 330 328 323 324 331 334 332 331 329 330 328
324 326 325 325 326 327 341 343 346 344 343 342 350 352 349 348 347 344 342 338 336 337 337 337 340 342 340 339 337 333 334 336 338 338 338 336 334 334 332 332 331 332 335 334 332 330 328 328 327
323 323 323 323 326 334 341 341 344 343 343 340 347 349 349 350 348 346 345 343 339 338 339 338 340 343 343 340 338 334 333 336 337 337 338 337 336 334 334 331 331 328 330 331 329 327 328 328 327
323 323 322 322 323 334 339 339 341 343 345 342 347 349 350 351 349 347 346 345 342 341 341 340 340 343 345 343 340 336 334 334 336 337 337 337 337 336 334 333 330 329 328 328 326 328 328 327 327
323 323 323 322 330 335 335 336 341 344 345 346 349 350 351 351 351 350 348 346 345 343 343 341 340 343 344 343 342 339 336 336 336 338 339 337 337 336 334 332 331 330 327 327 326 327 328 326 326
323 322 322 322 327 328 332 330 334 342 345 347 348 350 351 352 350 350 349 349 348 346 345 343 341 342 343 343 343 341 337 337 339 340 340 338 337 337 335 333 331 330 328 327 327 322 329 326 326
323 323 323 323 324 329 330 329 337 342 346 347 347 349 350 351 349 349 349 350 349 349 348 346 341 341 343 343 343 341 339 339 341 341 339 338 336 336 334 332 331 329 329 328 326 323 328 326 326
323 323 324 323 324 328 328 330 342 343 345 346 348 347 347 349 347 346 345 347 349 349 350 349 344 341 342 343 344 343 342 337 341 342 340 338 336 333 333 327 330 329 328 328 327 325 327 327 326
322 322 324 325 327 330 327 330 342 344 346 347 347 347 346 346 344 339 340 340 343 346 350 350 347 342 342 343 344 344 344 339 340 341 340 338 336 332 328 324 329 328 327 327 325 326 326 327 326
324 324 324 326 332 330 330 332 340 343 345 346 347 346 347 348 345 343 343 342 341 344 347 349 348 345 344 343 342 344 344 342 341 340 339 337 335 331 327 327 329 328 327 325 326 326 328 326 326
325 325 326 332 334 334 334 333 340 342 343 345 345 344 343 345 348 346 345 345 343 345 347 348 348 348 345 342 344 344 341 343 342 340 337 335 333 332 328 330 330 328 326 326 327 327 325 325 326
326 326 326 328 335 337 335 333 338 341 343 344 344 345 345 346 348 348 344 347 346 345 348 348 348 349 347 345 345 344 343 342 340 339 336 336 333 331 331 331 331 329 327 328 328 327 325 324 324
327 326 327 331 331 330 336 334 331 335 343 345 344 342 338 342 345 346 345 346 347 347 348 348 348 349 348 347 345 344 343 343 342 341 341 339 333 333 332 332 331 330 328 326 325 324 324 325 322
327 325 330 333 331 332 334 331 334 335 339 341 340 338 336 341 345 344 344 345 347 348 349 348 348 348 347 346 345 345 345 343 340 339 342 340 338 335 333 332 332 331 328 327 325 324 325 323 320
328 331 332 331 329 330 330 331 331 336 337 338 338 336 333 339 343 346 348 349 350 348 349 348 348 347 346 346 345 346 346 345 341 341 342 339 338 337 336 334 333 332 330 329 328 328 327 324 322
329 332 330 330 330 329 333 333 331 335 335 336 334 332 333 337 339 342 347 347 348 348 348 348 348 348 347 345 346 346 346 345 346 344 340 338 337 337 336 335 334 333 332 331 329 328 327 325 323
329 330 328 330 331 332 336 331 335 335 337 336 332 329 333 337 337 339 340 341 344 348 348 347 348 348 347 346 346 346 345 345 344 344 340 338 336 336 337 336 335 333 332 331 330 330 328 326 324
329 329 331 332 330 330 330 333 335 335 336 333 334 334 335 337 339 341 341 341 339 342 348 348 347 348 348 347 347 346 345 345 343 343 341 339 338 337 337 337 335 334 333 331 331 330 329 327 323
330 330 330 330 331 331 330 330 331 335 335 332 333 334 336 337 338 339 340 340 340 339 342 346 347 348 348 347 347 346 343 342 343 343 342 340 339 339 338 336 335 335 333 332 331 331 330 326 324
329 330 331 334 334 332 332 332 335 335 334 335 335 334 336 337 338 340 343 342 340 339 338 346 348 348 347 347 340 333 328 329 329 338 341 342 341 340 338 336 335 333 332 331 330 330 330 329 326
329 329 331 332 336 331 331 330 333 332 331 331 333 332 332 333 334 336 339 341 343 336 336 343 346 344 342 338 335 333 328 326 325 335 340 339 339 338 338 336 335 334 333 332 330 328 327 327 327
Wind_Speed
3 3 5 7 6 4 6 7 4 3 6 6 5 6 9 8 9 5 13 10 19 18 17 16 16 15 14 14 14 14 14 13 11 10 9 9 9 10 10 11 10 8 8 8 7 6 6 5 4
5 4 7 4 6 6 6 6 5 10 9 8 7 4 5 11 9 14 13 17 19 18 16 15 16 16 14 13 13 13 13 13 11 11 9 9 10 10 11 10 10 9 8 8 8 10 11 8 11
5 6 5 4 2 8 9 5 7 9 5 1 4 6 4 6 11 9 17 21 19 17 15 14 16 15 13 13 12 12 13 13 12 10 9 9 10 11 11 12 12 11 10 9 9 10 11 11 11
5 6 5 6 7 9 10 5 7 8 4 2 7 9 9 13 5 9 21 18 18 16 16 16 16 14 13 11 12 13 13 13 11 10 10 10 10 12 12 12 12 11 9 9 10 11 11 11 13
8 4 5 4 5 7 5 2 3 4 3 6 1 8 13 11 12 18 18 18 17 16 15 15 18 15 11 12 12 13 13 13 11 10 10 11 12 12 11 10 10 9 10 9 10 11 12 13 13
5 5 6 4 6 4 5 4 6 3 4 7 11 12 8 6 15 16 17 17 16 16 17 16 17 14 12 11 12 13 12 12 12 11 11 12 13 11 10 10 10 8 11 12 13 13 12 11 12
9 8 3 4 11 11 9 5 4 4 5 9 7 6 6 11 15 16 16 16 16 15 15 15 14 11 11 11 11 11 12 13 11 12 11 13 12 11 10 10 10 8 10 13 13 13 12 10 10
5 5 9 3 7 13 7 6 4 1 8 7 1 5 12 16 16 16 16 15 15 14 13 14 14 13 12 10 11 11 12 13 12 11 11 11 11 10 10 11 9 8 9 11 11 11 10 10 9
4 6 6 9 7 10 10 8 4 5 10 6 4 8 19 20 18 18 16 14 13 13 12 12 12 11 11 10 10 10 11 11 10 9 10 7 5 5 7 7 9 8 9 10 8 9 9 8 10
7 3 6 3 3 5 8 4 10 7 9 10 11 11 22 21 19 19 17 16 16 15 14 13 12 12 11 10 10 9 8 8 7 6 5 4 3 2 3 5 6 8 9 8 7 7 8 3 4
3 7 4 6 1 1 6 5 4 4 7 8 13 19 21 20 16 15 14 14 15 14 13 12 13 12 11 10 10 9 8 9 7 6 5 2 2 1 0 0 1 4 7 6 6 4 2 3 4
6 3 2 6 4 3 7 3 5 1 8 6 14 21 22 17 16 14 13 11 12 13 13 13 12 12 11 9 9 8 7 6 6 5 5 3 3 2 2 1 2 3 3 5 4 5 4 4 4
3 4 3 3 3 2 5 5 3 10 7 11 15 19 18 16 16 14 12 12 11 14 14 14 14 12 12 9 8 7 6 6 5 4 4 3 3 2 3 2 3 3 4 4 6 7 4 5 5
2 2 4 3 5 5 5 4 5 8 9 15 16 16 15 14 15 14 13 14 13 13 14 14 15 13 13 11 9 7 6 6 5 4 3 2 3 3 2 3 3 4 5 5 7 6 5 4 6
4 9 7 6 7 5 3 8 6 6 7 13 14 13 14 13 14 13 12 12 14 15 14 16 16 14 13 13 10 9 8 8 7 6 4 3 3 3 3 3 4 5 7 7 7 7 5 4 4
8 8 11 9 7 5 5 9 13 4 10 12 13 11 11 12 12 12 13 13 13 14 16 16 15 15 15 15 14 12 11 10 8 6 5 5 4 5 4 4 5 6 7 8 9 4 7 6 5
9 11 12 10 7 4 8 7 6 5 7 11 12 11 11 10 9 9 10 11 13 15 15 16 17 18 17 13 10 7 8 9 7 7 6 6 5 4 4 5 5 7 7 7 9 6 8 8 7
12 12 14 12 9 9 9 4 5 6 6 10 11 11 11 11 9 8 9 10 11 14 16 17 18 18 16 13 12 9 10 8 9 8 8 8 6 4 4 5 6 7 7 7 8 6 7 9 9
7 14 16 7 4 7 3 2 5 4 6 8 10 11 11 9 11 9 6 8 11 12 16 19 21 20 18 16 15 11 9 8 8 8 8 7 6 6 7 6 7 7 7 8 8 7 8 10 9
8 12 10 7 4 7 6 6 3 4 4 6 6 6 5 6 9 12 11 7 9 11 13 16 19 20 19 15 13 8 7 7 7 8 11 10 12 10 9 8 7 7 7 8 8 10 9 10 9
11 13 14 14 9 2 7 8 9 6 6 7 8 5 3 4 6 8 11 10 8 10 12 14 17 18 18 15 12 7 6 5 7 8 8 9 11 11 10 10 9 8 9 8 9 10 11 10 10
11 9 12 13 14 9 6 2 9 8 8 8 8 6 4 3 4 6 11 11 10 11 12 13 14 15 14 14 12 11 7 4 3 6 6 8 10 10 11 11 10 11 10 9 9 10 10 11 12
6 11 12 14 11 4 10 7 7 5 10 12 11 7 4 4 4 6 7 9 9 11 12 12 14 15 13 14 11 9 7 5 5 6 8 9 10 12 11 12 11 13 12 11 10 10 10 12 14
14 14 8 8 6 9 5 7 5 6 1 3 12 8 6 7 6 6 7 8 9 11 12 13 15 14 12 12 10 9 7 7 7 8 8 8 8 9 11 12 12 13 14 14 12 11 11 12 12
10 15 7 8 7 7 7 6 9 2 2 5 10 11 10 9 8 8 8 8 8 10 13 15 16 16 16 14 12 11 10 11 11 10 8 7 8 9 9 10 11 12 14 14 13 13 12 13 15
16 15 5 8 8 5 8 7 3 3 2 6 7 13 11 10 10 9 9 10 11 12 13 14 16 15 14 13 12 11 11 12 11 10 9 8 7 8 9 10 11 12 13 14 15 15 15 15 15
10 11 4 4 2 8 4 5 5 2 6 12 12 11 11 12 11 11 12 11 10 12 13 14 15 14 11 11 10 9 10 11 11 11 10 11 10 10 11 12 11 11 13 14 16 17 18 17 16
7 8 6 8 6 8 5 5 1 8 7 11 12 13 12 11 12 11 10 10 10 9 9 9 9 8 9 8 6 3 7 11 15 15 14 13 12 12 12 12 12 12 12 13 16 18 18 18 17
6 8 2 3 4 5 5 4 8 2 1 3 10 12 10 11 12 10 10 12 11 8 7 8 8 9 7 8 14 14 16 14 26 28 18 15 12 13 14 15 14 14 15 15 17 18 17 17 18
6 9 10 8 10 5 6 4 8 4 2 2 2 3 5 8 9 10 10 9 8 7 8 9 9 13 13 11 7 8 15 9 33 31 24 16 14 14 16 16 16 17 17 16 17 21 22 20 19
Wind_Direction
207 220 255 248 230 223 113 82 15 22 65 50 60 3 43 21 3 39 124 144 141 139 143 144 142 137 132 136 126 116 111 109 105 102 97 89 79 73 67 63 59 56 55 56 59 54 55 54 82
212 224 241 270 254 153 88 34 348 60 100 106 102 122 57 77 66 115 137 145 141 138 138 142 143 139 138 131 118 117 117 115 109 97 86 79 76 70 61 58 57 59 55 58 58 74 70 77 83
210 232 264 273 297 63 89 63 79 114 104 79 109 38 27 62 110 120 133 140 139 137 139 146 140 136 136 127 117 114 111 105 100 96 90 83 77 71 66 63 63 60 59 59 66 88 86 96 102
219 207 219 254 98 95 70 55 114 139 93 71 79 78 84 74 101 115 138 139 138 138 137 144 137 138 137 135 122 119 113 108 103 97 91 85 80 77 73 69 64 60 56 55 79 84 102 101 92
221 251 213 197 120 89 110 83 151 96 99 84 316 94 102 69 101 128 141 145 142 138 138 142 138 146 154 136 128 124 120 116 111 106 101 99 94 89 81 70 66 66 60 66 91 88 88 96 95
220 276 218 174 109 106 145 152 134 88 75 91 109 113 91 122 126 142 146 146 144 142 142 146 143 157 156 140 133 132 127 119 114 112 107 109 107 99 88 74 65 78 72 91 98 92 85 86 91
271 235 84 138 113 136 119 167 171 89 121 77 135 86 97 155 141 149 148 145 146 145 144 148 149 158 155 141 139 133 123 119 113 110 112 118 117 108 88 69 63 84 91 102 109 104 101 88 80
272 269 170 143 149 113 127 140 118 357 85 113 119 125 149 134 148 147 148 149 150 150 150 153 156 156 155 148 148 135 134 131 119 117 120 121 118 102 75 54 64 91 102 109 112 110 103 94 79
261 236 156 123 180 128 142 156 122 106 125 101 87 88 126 143 148 151 151 152 156 159 158 158 160 157 157 151 156 143 140 141 128 118 122 100 119 103 77 81 77 93 123 123 108 104 93 83 64
255 167 82 49 76 128 131 218 131 175 134 124 110 119 134 145 155 155 160 163 168 169 167 165 164 166 164 158 153 155 155 152 163 153 157 144 125 105 97 82 84 99 134 128 120 112 97 55 74
182 92 88 79 110 291 136 174 128 196 141 139 146 147 150 155 163 159 155 161 169 171 168 171 170 174 172 168 166 169 171 175 173 174 171 171 169 166 155 99 109 116 117 119 125 123 97 69 62
195 81 63 74 103 161 181 97 155 342 82 112 141 157 155 164 165 169 161 164 167 174 174 177 177 180 182 176 178 177 180 179 176 179 184 198 202 205 219 235 202 174 147 136 138 132 106 94 85
173 114 117 90 159 167 145 187 36 118 91 130 136 157 164 167 168 174 171 173 181 181 182 185 183 186 181 190 186 187 185 185 189 179 197 215 228 224 222 230 214 193 177 167 148 134 121 123 106
143 159 131 141 145 150 213 139 224 96 116 132 147 159 167 173 176 177 188 186 191 189 191 190 190 189 189 191 193 188 191 195 195 199 220 224 226 227 248 228 206 200 198 180 165 163 169 136 121
165 177 163 184 172 143 227 186 153 104 139 136 147 156 161 179 186 197 197 203 198 201 195 197 194 193 192 195 193 198 196 197 199 204 211 225 237 250 248 239 226 211 203 190 183 176 196 174 151
187 207 177 153 176 141 235 116 103 124 168 145 151 152 169 179 190 199 211 214 210 212 204 200 196 195 199 198 197 197 198 195 208 207 212 214 230 243 256 241 219 210 205 200 195 199 211 199 187
198 197 203 162 203 158 238 91 103 139 169 153 155 165 169 166 180 188 212 214 212 209 207 205 198 200 201 197 198 209 231 210 226 216 219 225 230 240 245 225 221 207 216 212 202 227 223 199 214
186 215 180 162 169 212 193 101 121 135 168 173 170 183 182 181 191 185 194 207 214 209 202 203 200 202 192 189 191 205 230 227 224 231 225 220 232 227 224 216 222 214 225 215 217 231 209 223 220
181 189 176 120 153 221 215 124 147 153 183 194 200 195 189 198 183 200 206 204 216 209 199 197 198 195 184 187 190 203 220 231 227 224 220 225 235 220 233 227 229 222 226 227 214 226 220 223 232
200 195 173 137 157 243 183 186 188 226 223 229 224 211 196 192 197 205 208 216 207 201 197 196 198 194 187 190 194 193 216 219 210 206 211 220 238 244 234 235 242 225 217 213 226 215 215 224 220
210 206 182 179 154 171 190 209 206 201 233 239 229 204 192 220 216 194 192 188 193 194 194 196 197 198 192 191 182 172 179 181 196 216 229 240 240 234 221 226 231 225 228 226 211 204 213 224 213
184 205 188 154 187 190 214 244 182 198 227 234 226 200 193 181 156 147 162 172 181 191 188 189 191 195 195 191 189 188 207 204 208 223 239 229 222 220 220 222 225 224 227 225 217 219 227 229 240
100 175 174 178 209 195 177 260 112 160 237 230 226 200 188 147 127 134 161 166 175 177 181 180 181 186 191 191 190 194 222 205 201 219 235 235 226 220 222 226 230 225 220 222 220 217 224 229 243
131 130 143 192 185 219 182 250 217 144 170 206 206 197 180 163 162 158 146 156 161 167 171 173 174 179 185 189 196 208 217 224 227 242 259 260 247 247 240 236 236 230 224 220 223 228 230 232 240
163 162 165 199 203 242 138 215 291 86 236 241 179 177 174 175 189 178 177 188 181 180 179 176 177 180 188 192 203 213 224 227 236 250 258 263 259 256 248 234 242 240 236 233 229 226 226 227 230
195 194 226 211 218 205 145 236 140 21 322 188 173 159 166 179 189 194 197 196 191 193 190 185 186 193 192 197 209 219 228 233 242 247 258 252 257 271 258 243 245 237 231 235 238 239 238 235 232
164 212 5 299 260 283 189 154 178 182 154 157 166 176 189 197 205 207 205 207 208 195 195 193 191 190 186 201 215 227 236 245 258 251 243 249 251 257 253 250 245 243 235 237 238 240 238 233 230
208 151 186 220 242 249 165 263 122 153 165 175 184 198 205 216 221 220 222 220 213 211 195 199 192 180 180 193 208 289 317 299 280 263 249 251 252 254 253 250 250 244 238 237 239 246 245 238 238
166 188 234 5 330 292 233 174 67 103 68 231 213 217 229 238 242 234 225 218 224 198 186 170 168 165 138 98 82 42 1 7 329 290 268 256 260 254 253 251 242 238 240 233 235 240 250 239 241
235 206 189 229 166 236 330 77 104 75 40 21 13 331 348 330 307 284 260 246 221 204 170 155 149 113 131 129 131 82 342 305 293 279 273 271 267 266 258 257 252 250 247 245 238 240 242 242 244